Location: Passau
(48.5830°N, 13.4830°E)
Time: 23:13:34
(UTC+01:00)

ZACube-1 - Visible Passes

Search period start: 05 December 2021 00:00
Search period end: 15 December 2021 00:00
Orbit: 583 x 664 km, 97.6° (Epoch: 04 December)

Date Brightness Start Highest point End Pass type
(mag) Time Alt. Az. Time Alt. Az. Time Alt. Az.
05 Dec ? 05:52:20 10° NNW 05:52:34 11° NNW 05:52:34 11° NNW visible
05 Dec ? 16:52:28 10° SW 16:55:00 15° W 16:57:34 10° NW visible
06 Dec ? 04:33:48 10° NNE 04:33:52 10° NNE 04:33:52 10° NNE visible
07 Dec ? 04:52:18 10° N 04:52:24 11° N 04:52:24 11° N visible
08 Dec ? 05:10:55 10° N 05:10:58 10° N 05:10:58 10° N visible
10 Dec ? 16:48:19 10° SW 16:51:07 17° W 16:53:58 10° NW visible
11 Dec ? 17:08:39 10° W 17:09:51 11° W 17:11:03 10° WNW visible
